| time (UTC) | temp F | wind direction | speed MPH | gust MPH | rain 1hr in | rain 24hr in | rain mn in | humidity % | barometer mb |
| 20260507213051 | 53 | 42 | 0.0 | 2.0 | 0.04 | 0.78 | 0.77 | 91 | 1009.4 |
| 20260507211549 | 53 | 159 | 0.0 | 0.0 | 0.06 | 0.78 | 0.77 | 91 | 1009.5 |
| 20260507210051 | 53 | 115 | 0.0 | 3.0 | 0.05 | 0.77 | 0.76 | 90 | 1009.5 |
| 20260507204553 | 53 | 130 | 0.0 | 1.0 | 0.03 | 0.75 | 0.74 | 90 | 1009.2 |
| 20260507203049 | 53 | 184 | 0.0 | 0.0 | 0.00 | 0.00 | 0.73 | 90 | 1009.0 |
| 20260507201553 | 53 | 174 | 0.0 | 1.0 | 0.00 | 0.72 | 0.71 | 89 | 1009.0 |
| 20260507200045 | 53 | 65 | 0.0 | 2.0 | 0.00 | 0.72 | 0.71 | 87 | 1009.0 |
| 20260507194545 | 54 | 217 | 0.0 | 4.0 | 0.00 | 0.72 | 0.71 | 86 | 1008.7 |
| 20260507193050 | 54 | 19 | 0.0 | 3.0 | 0.00 | 0.72 | 0.71 | 87 | 1008.8 |
| 20260507191551 | 54 | 221 | 0.0 | 4.0 | 0.00 | 0.72 | 0.71 | 86 | 1008.9 |
| 20260507190046 | 54 | 356 | 0.0 | 3.0 | 0.00 | 0.72 | 0.71 | 87 | 1008.6 |
| 20260507184544 | 53 | 297 | 0.0 | 3.0 | 0.00 | 0.73 | 0.71 | 88 | 1008.8 |
| 20260507183043 | 52 | 93 | 1.0 | 2.0 | 0.01 | 0.73 | 0.71 | 88 | 1009.1 |
| 20260507181538 | 53 | 354 | 0.0 | 2.0 | 0.02 | 0.73 | 0.71 | 88 | 1009.7 |
| 20260507180038 | 53 | 147 | 1.0 | 5.0 | 0.03 | 0.73 | 0.71 | 89 | 1008.8 |
| 20260507174542 | 54 | 92 | 1.0 | 5.0 | 0.05 | 0.73 | 0.71 | 90 | 1008.9 |
| 20260507173036 | 54 | 21 | 1.0 | 3.0 | 0.06 | 0.72 | 0.70 | 90 | 1008.9 |
| 20260507171536 | 54 | 28 | 0.0 | 3.0 | 0.07 | 0.71 | 0.69 | 91 | 1008.4 |
| 20260507170041 | 54 | 6 | 0.0 | 3.0 | 0.09 | 0.70 | 0.68 | 91 | 1008.5 |
| 20260507164533 | 54 | 32 | 0.0 | 3.0 | 0.09 | 0.68 | 0.66 | 90 | 1009.4 |
| 20260507163030 | 54 | 58 | 0.0 | 6.0 | 0.10 | 0.66 | 0.64 | 90 | 1009.6 |
| 20260507161528 | 55 | 22 | 0.0 | 3.0 | 0.11 | 0.64 | 0.62 | 91 | 1009.8 |
| 20260507160026 | 55 | 350 | 0.0 | 2.0 | 0.10 | 0.61 | 0.59 | 91 | 1009.4 |
| 20260507154525 | 56 | 356 | 0.0 | 3.0 | 0.11 | 0.59 | 0.56 | 91 | 1009.3 |
| 20260507153024 | 56 | 23 | 0.0 | 1.0 | 0.11 | 0.56 | 0.54 | 91 | 1008.9 |
| 20260507151522 | 56 | 350 | 0.0 | 3.0 | 0.11 | 0.53 | 0.51 | 91 | 1009.3 |
| 20260507150024 | 57 | 27 | 0.0 | 2.0 | 0.11 | 0.50 | 0.48 | 91 | 1009.3 |
| 20260507144518 | 57 | 8 | 1.0 | 3.0 | 0.12 | 0.48 | 0.46 | 91 | 1009.2 |
| 20260507143019 | 57 | 262 | 0.0 | 2.0 | 0.12 | 0.45 | 0.43 | 91 | 1009.2 |
| 20260507141513 | 58 | 38 | 0.0 | 2.0 | 0.10 | 0.42 | 0.40 | 91 | 1009.4 |
| 20260507140012 | 59 | 155 | 0.0 | 3.0 | 0.07 | 0.39 | 0.37 | 90 | 1009.4 |
| 20260507134508 | 62 | 35 | 0.0 | 7.0 | 0.03 | 0.35 | 0.33 | 89 | 1008.5 |
| 20260507133005 | 65 | 267 | 0.0 | 1.0 | 0.00 | 0.32 | 0.30 | 92 | 1008.1 |
| 20260507131509 | 65 | 267 | 0.0 | 0.0 | 0.00 | 0.32 | 0.30 | 92 | 1008.0 |
| 20260507130002 | 65 | 267 | 0.0 | 0.0 | 0.00 | 0.32 | 0.30 | 92 | 1008.4 |
| 20260507124504 | 65 | 267 | 0.0 | 0.0 | 0.01 | 0.32 | 0.30 | 92 | 1008.5 |
| 20260507123002 | 65 | 267 | 0.0 | 0.0 | 0.01 | 0.32 | 0.30 | 92 | 1008.9 |
| 20260507121608 | 65 | 267 | 0.0 | 0.0 | 0.01 | 0.32 | 0.30 | 92 | 1008.5 |
| 20260507114614 | 65 | 267 | 0.0 | 0.0 | 0.03 | 0.31 | 0.28 | 92 | 1008.9 |
| 20260507113101 | 64 | 267 | 0.0 | 0.0 | 0.06 | 0.31 | 0.28 | 92 | 1008.9 |
| 20260507111606 | 64 | 267 | 0.0 | 0.0 | 0.08 | 0.31 | 0.28 | 92 | 1008.9 |
| 20260507110109 | 64 | 268 | 0.0 | 0.0 | 0.09 | 0.31 | 0.28 | 92 | 1008.7 |
| 20260507104555 | 64 | 267 | 0.0 | 1.0 | 0.06 | 0.28 | 0.26 | 91 | 1008.7 |
| 20260507103055 | 65 | 236 | 0.0 | 1.0 | 0.05 | 0.25 | 0.23 | 91 | 1008.6 |
| 20260507101603 | 65 | 283 | 0.0 | 1.0 | 0.05 | 0.23 | 0.21 | 91 | 1008.5 |
| 20260507100053 | 65 | 290 | 0.0 | 1.0 | 0.06 | 0.22 | 0.20 | 91 | 1008.4 |
| 20260507094554 | 65 | 290 | 0.0 | 1.0 | 0.08 | 0.22 | 0.20 | 91 | 1008.4 |
| 20260507093056 | 65 | 144 | 0.0 | 2.0 | 0.06 | 0.20 | 0.18 | 91 | 1008.6 |
| 20260507091552 | 65 | 329 | 0.0 | 1.0 | 0.05 | 0.18 | 0.16 | 91 | 1008.5 |
| 20260507090055 | 65 | 257 | 0.0 | 1.0 | 0.04 | 0.16 | 0.14 | 91 | 1008.5 |
| 20260507084551 | 65 | 138 | 0.0 | 0.0 | 0.02 | 0.14 | 0.12 | 91 | 1008.4 |
| 20260507083048 | 65 | 138 | 0.0 | 0.0 | 0.02 | 0.14 | 0.12 | 91 | 1008.5 |
| 20260507081549 | 65 | 138 | 0.0 | 1.0 | 0.02 | 0.13 | 0.11 | 91 | 1008.6 |
| 20260507080049 | 65 | 161 | 0.0 | 1.0 | 0.05 | 0.12 | 0.10 | 90 | 1008.6 |
| 20260507074557 | 65 | 311 | 0.0 | 2.0 | 0.05 | 0.12 | 0.10 | 90 | 1008.9 |
| 20260507073041 | 65 | 43 | 0.0 | 3.0 | 0.05 | 0.12 | 0.10 | 89 | 1009.2 |
| 20260507071539 | 66 | 165 | 1.0 | 5.0 | 0.04 | 0.11 | 0.09 | 89 | 1009.5 |
| 20260507070039 | 66 | 160 | 0.0 | 2.0 | 0.00 | 0.07 | 0.05 | 89 | 1009.6 |
| 20260507064538 | 66 | 224 | 0.0 | 2.0 | 0.00 | 0.07 | 0.05 | 89 | 1009.6 |
| 20260507063038 | 66 | 281 | 0.0 | 2.0 | 0.00 | 0.07 | 0.05 | 89 | 1009.7 |
| 20260507061537 | 66 | 309 | 0.0 | 2.0 | 0.00 | 0.07 | 0.05 | 89 | 1009.7 |
| 20260507060036 | 66 | 151 | 0.0 | 2.0 | 0.02 | 0.07 | 0.05 | 88 | 1009.2 |
| 20260507054542 | 66 | 290 | 1.0 | 4.0 | 0.02 | 0.07 | 0.05 | 88 | 1009.2 |
| 20260507053036 | 66 | 132 | 1.0 | 4.0 | 0.04 | 0.07 | 0.05 | 89 | 1009.4 |
| 20260507051534 | 66 | 197 | 0.0 | 3.0 | 0.05 | 0.07 | 0.05 | 89 | 1009.6 |
| 20260507050032 | 66 | 139 | 0.0 | 4.0 | 0.03 | 0.05 | 0.03 | 90 | 1010.2 |
| 20260507044533 | 66 | 200 | 0.0 | 0.0 | 0.03 | 0.05 | 0.03 | 90 | 1010.9 |
| 20260507043032 | 66 | 200 | 0.0 | 0.0 | 0.02 | 0.03 | 0.01 | 89 | 1010.8 |
| 20260507041525 | 66 | 200 | 0.0 | 0.0 | 0.01 | 0.02 | 0.00 | 88 | 1010.3 |
| 20260507040023 | 66 | 279 | 0.0 | 1.0 | 0.01 | 0.02 | 0.00 | 88 | 1010.4 |
| 20260507034522 | 66 | 104 | 0.0 | 1.0 | 0.01 | 0.02 | 0.02 | 88 | 1010.1 |
| 20260507033023 | 66 | 104 | 0.0 | 0.0 | 0.00 | 0.01 | 0.01 | 87 | 1010.3 |
| 20260507031520 | 67 | 104 | 0.0 | 0.0 | 0.00 | 0.01 | 0.01 | 86 | 1010.1 |
| 20260507030019 | 67 | 104 | 0.0 | 1.0 | 0.00 | 0.01 | 0.01 | 84 | 1009.9 |
| 20260507024523 | 68 | 104 | 0.0 | 1.0 | 0.00 | 0.01 | 0.01 | 83 | 1010.1 |
| 20260507023018 | 68 | 104 | 0.0 | 1.0 | 0.00 | 0.01 | 0.01 | 84 | 1009.0 |
| 20260507021521 | 67 | 138 | 0.0 | 0.0 | 0.00 | 0.01 | 0.01 | 84 | 1009.8 |
| 20260507020020 | 67 | 138 | 0.0 | 0.0 | 0.00 | 0.01 | 0.01 | 84 | 1010.4 |
| 20260507014523 | 68 | 138 | 0.0 | 0.0 | 0.00 | 0.01 | 0.01 | 83 | 1010.4 |
| 20260507013015 | 68 | 138 | 0.0 | 1.0 | 0.00 | 0.01 | 0.01 | 83 | 1010.1 |
| 20260507011515 | 68 | 138 | 0.0 | 0.0 | 0.00 | 0.01 | 0.01 | 82 | 1009.9 |
| 20260507010015 | 68 | 138 | 0.0 | 0.0 | 0.00 | 0.01 | 0.01 | 83 | 1009.9 |
| 20260507004517 | 68 | 138 | 0.0 | 2.0 | 0.00 | 0.01 | 0.01 | 82 | 1009.7 |
| 20260507003013 | 68 | 136 | 0.0 | 1.0 | 0.00 | 0.01 | 0.01 | 83 | 1009.7 |
| 20260507001519 | 69 | 136 | 0.0 | 0.0 | 0.00 | 0.01 | 0.01 | 82 | 1009.9 |
| 20260507000012 | 70 | 136 | 0.0 | 0.0 | 0.00 | 0.01 | 0.01 | 80 | 1010.1 |
| 20260506234514 | 71 | 136 | 0.0 | 1.0 | 0.00 | 0.01 | 0.01 | 79 | 1010.1 |
| 20260506233011 | 72 | 209 | 0.0 | 1.0 | 0.00 | 0.01 | 0.01 | 77 | 1009.9 |
| 20260506231510 | 72 | 159 | 0.0 | 2.0 | 0.00 | 0.01 | 0.01 | 76 | 1009.5 |
| 20260506230009 | 73 | 110 | 0.0 | 5.0 | 0.00 | 0.01 | 0.01 | 74 | 1009.4 |
| 20260506224509 | 74 | 169 | 1.0 | 4.0 | 0.00 | 0.01 | 0.01 | 72 | 1009.4 |
| 20260506223008 | 74 | 209 | 1.0 | 7.0 | 0.00 | 0.01 | 0.01 | 71 | 1009.4 |
| 20260506221506 | 74 | 268 | 2.0 | 7.0 | 0.00 | 0.01 | 0.01 | 71 | 1009.4 |
| 20260506220015 | 75 | 185 | 1.0 | 7.0 | 0.00 | 0.01 | 0.01 | 71 | 1009.4 |
| 20260506214506 | 74 | 124 | 2.0 | 8.0 | 0.00 | 0.01 | 0.01 | 72 | 1009.6 |